Orbital Elements at Epoch 2459200.5 (2020-Dec-17.0) TDB
Reference: JPL 3 (heliocentric ecliptic J2000)
Element | Value | Uncertainty (1-sigma) | Units |
e | .1632315252818714 | 1.5245e-05 | |
a | 1.011654859582956 | 3.4281e-06 | au |
q | .8465208937944131 | 1.2683e-05 | au |
i | 2.059870443182739 | 0.00016591 | deg |
node | 297.8983262843394 | 2.2243e-05 | deg |
peri | 270.1490756844372 | 0.00071566 | deg |
M | 257.4158462957656 | 0.001317 | deg |
tp | 2459306.407023917293 (2021-Apr-01.90702392) | 0.00082153 | TDB |
period | 371.660994739501 1.02 | 0.0018891 5.172e-06 | d yr |
n | .9686246474487475 | 4.9235e-06 | deg/d |
Q | 1.1767888253715 | 3.9877e-06 | au |
|
| | Orbit Determination Parameters
Additional Information
|